EW4077 Weather Reports


Display with metric or nautical units.
time (UTC)temp
F
wind
direction
speed
MPH
gust
MPH
rain 1hr
in
rain 24hr
in
rain mn
in
humidity
%
barometer
mb
20260902223027 72 228 12.0 18.0 0.00 0.00 0.00 69 1014.2
20260902221520 72 236 12.0 17.0 0.00 0.00 0.00 66 1014.4
20260902220017 73 225 8.0 14.0 0.00 0.00 0.00 71 1014.6
20260902214513 73 206 6.0 13.0 0.00 0.00 0.00 71 1014.9
20260902213010 73 205 6.0 11.0 0.00 0.00 0.00 71 1015.1
20260902211511 73 202 6.0 11.0 0.00 0.00 0.00 70 1015.2
20260902210007 73 207 5.0 11.0 0.00 0.00 0.00 70 1015.4
20260902204512 73 175 5.0 11.0 0.00 0.00 0.00 70 1015.3
20260902203008 73 234 4.0 10.0 0.00 0.00 0.00 69 1015.4
20260902201506 73 161 7.0 10.0 0.00 0.00 0.00 71 1015.5
20260902200004 73 187 6.0 9.0 0.00 0.00 0.00 72 1015.7
20260902194506 74 156 4.0 7.0 0.00 0.00 0.00 70 1015.8
20260902193003 74 229 4.0 7.0 0.00 0.00 0.00 69 1016.0
20260902191501 74 163 1.0 7.0 0.00 0.00 0.00 69 1016.2
20260902190104 73 148 1.0 4.0 0.00 0.00 0.00 70 1016.2
20260902184557 72 290 1.0 3.0 0.00 0.00 0.00 71 1016.3
20260902183106 73 246 1.0 3.0 0.00 0.00 0.00 72 1016.4
20260902181555 73 113 0.0 3.0 0.00 0.00 0.00 71 1016.3
20260902180052 72 151 0.0 3.0 0.00 0.00 0.00 74 1016.5
20260902174551 72 193 1.0 4.0 0.00 0.00 0.00 73 1016.5
20260902173025 72 101 2.0 4.0 0.00 0.00 0.00 71 1016.3
20260902171535 72 190 1.0 5.0 0.00 0.00 0.00 72 1016.2
20260902164559 72 136 2.0 6.0 0.00 0.00 0.00 73 1016.1
20260902164518 72 138 3.0 6.0 0.00 0.00 0.00 73 1016.1
20260902161541 71 185 1.0 3.0 0.00 0.00 0.00 75 1016.1
20260902160125 70 161 1.0 3.0 0.00 0.00 0.00 76 1016.0
20260902154552 71 167 1.0 4.0 0.00 0.00 0.00 78 1015.8
20260902153101 69 149 2.0 3.0 0.00 0.00 0.00 79 1015.9
20260902151507 68 173 0.0 0.0 0.00 0.00 0.00 82 1015.8
20260902150017 68 284 0.0 0.0 0.00 0.00 0.00 84 1015.8
20260902144511 68 286 0.0 0.0 0.00 0.00 0.00 84 1015.8
20260902143030 67 286 0.0 0.0 0.00 0.00 0.00 86 1015.6
20260902141536 65 286 0.0 0.0 0.00 0.00 0.00 88 1015.5
20260902140145 65 278 0.0 0.0 0.00 0.00 0.00 88 1015.4
20260902134614 64 278 0.0 0.0 0.00 0.00 0.00 88 1015.2
20260902133013 64 298 0.0 0.0 0.00 0.00 0.00 88 1015.0
20260902131521 64 298 0.0 0.0 0.00 0.00 0.00 88 1015.1
20260902130013 64 298 0.0 0.0 0.00 0.00 0.00 88 1015.0
20260902124510 64 317 1.0 3.0 0.00 0.00 0.00 88 1015.0
20260902123009 64 313 0.0 0.0 0.00 0.00 0.00 88 1015.0
20260902121507 64 294 0.0 0.0 0.00 0.00 0.00 88 1015.1
20260902120008 65 301 0.0 0.0 0.00 0.00 0.00 87 1015.0
20260902114514 65 294 0.0 0.0 0.00 0.00 0.00 88 1015.1
20260902113006 65 294 0.0 0.0 0.00 0.00 0.00 88 1015.2
20260902111506 65 250 0.0 0.0 0.00 0.00 0.00 88 1015.2
20260902110012 65 250 0.0 0.0 0.00 0.00 0.00 87 1015.2
20260902104506 65 296 0.0 0.0 0.00 0.00 0.00 87 1015.2
20260902103003 65 302 0.0 0.0 0.00 0.00 0.00 86 1015.2
20260902101502 64 302 0.0 0.0 0.00 0.00 0.00 86 1015.2
20260902100001 65 302 0.0 0.0 0.00 0.00 0.00 86 1015.2
20260902094600 65 302 0.0 0.0 0.00 0.00 0.00 86 1015.4
20260902093058 65 301 0.0 0.0 0.00 0.00 0.00 86 1015.4
20260902091558 66 302 0.0 0.0 0.00 0.00 0.00 85 1015.5
20260902090107 65 302 0.0 0.0 0.00 0.00 0.00 85 1015.5
20260902084559 66 302 0.0 0.0 0.00 0.00 0.00 84 1015.5
20260902083055 66 298 0.0 0.0 0.00 0.00 0.00 84 1015.6
20260902081554 66 272 0.0 0.0 0.00 0.00 0.00 82 1015.5
20260902080105 66 272 0.0 0.0 0.00 0.00 0.00 82 1015.6
20260902074551 66 272 0.0 1.0 0.00 0.00 0.00 83 1015.5
20260902073055 66 254 0.0 1.0 0.00 0.00 0.00 82 1015.4
20260902071549 67 242 1.0 4.0 0.00 0.00 0.00 82 1015.2
20260902070044 67 254 1.0 3.0 0.00 0.00 0.00 81 1015.0
20260902064547 67 258 0.0 2.0 0.00 0.00 0.00 81 1015.0
20260902063042 67 253 1.0 2.0 0.00 0.00 0.00 81 1015.0
20260902061547 68 213 1.0 2.0 0.00 0.00 0.00 81 1015.0
20260902060044 68 238 2.0 4.0 0.00 0.00 0.00 79 1015.0
20260902054539 68 236 0.0 2.0 0.00 0.00 0.00 79 1014.9
20260902053040 69 224 0.0 2.0 0.00 0.00 0.00 76 1014.9
20260902051538 69 256 1.0 3.0 0.00 0.00 0.00 75 1014.9
20260902050040 69 268 2.0 4.0 0.00 0.00 0.00 75 1014.8
20260902044537 69 281 2.0 5.0 0.00 0.00 0.00 76 1014.7
20260902043036 68 270 4.0 7.0 0.00 0.00 0.00 77 1014.5
20260902041535 68 254 3.0 8.0 0.00 0.00 0.00 79 1014.4
20260902040035 69 252 5.0 9.0 0.00 0.00 0.00 79 1014.0
20260902034534 68 248 4.0 8.0 0.00 0.00 0.00 79 1013.8
20260902033040 68 257 5.0 11.0 0.00 0.00 0.00 80 1013.6
20260902031634 69 257 6.0 14.0 0.00 0.00 0.00 78 1013.5
20260902030031 68 254 3.0 11.0 0.00 0.00 0.00 76 1013.3
20260902024530 69 259 10.0 16.0 0.00 0.00 0.00 75 1013.2
20260902023030 69 254 8.0 12.0 0.00 0.00 0.00 76 1013.0
20260902021535 69 272 3.0 9.0 0.00 0.00 0.00 76 1013.1
20260902020028 69 276 7.0 13.0 0.00 0.00 0.00 77 1013.1
20260902014536 70 254 8.0 16.0 0.00 0.00 0.00 78 1013.1
20260902013027 70 240 9.0 16.0 0.00 0.00 0.00 78 1013.2
20260902011535 70 256 11.0 18.0 0.00 0.00 0.00 78 1013.1
20260902010041 70 253 9.0 19.0 0.00 0.00 0.00 77 1013.2
20260902004529 70 230 13.0 21.0 0.00 0.00 0.00 77 1013.3
20260902003023 71 235 10.0 19.0 0.00 0.00 0.00 77 1013.2
20260902001524 71 246 12.0 19.0 0.00 0.00 0.00 77 1013.2
20260902000027 71 259 11.0 17.0 0.00 0.00 0.00 76 1013.2
20260901234538 71 252 11.0 21.0 0.00 0.00 0.00 76 1013.5
20260901233013 71 213 11.0 18.0 0.00 0.00 0.00 76 1013.5
20260901231512 71 230 13.0 18.0 0.00 0.00 0.00 76 1013.5
20260901230008 71 257 13.0 22.0 0.00 0.00 0.00 77 1013.5
20260901224507 71 268 11.0 20.0 0.00 0.00 0.00 76 1013.7